G4ZMG Weather Reports


Display with metric or nautical units.
time (UTC)temp
F
wind
direction
speed
MPH
gust
MPH
rain 1hr
in
rain 24hr
in
rain mn
in
humidity
%
barometer
mb
20260508025037 49 221 0.0 0.0 0.00 0.00 0.00 76 1014.1
20260508024031 49 219 0.0 0.0 0.00 0.00 0.00 76 1014.1
20260508023025 49 217 0.0 0.0 0.00 0.00 0.00 75 1014.0
20260508022003 49 217 0.0 0.0 0.00 0.00 0.00 74 1013.9
20260508021044 49 217 0.0 0.0 0.00 0.00 0.00 74 1014.0
20260508020049 49 220 0.0 1.0 0.00 0.00 0.00 74 1014.0
20260508015044 49 220 0.0 0.0 0.00 0.00 0.00 74 1014.1
20260508014036 50 210 0.0 0.0 0.00 0.00 0.00 74 1014.1
20260508013020 49 220 0.0 1.0 0.00 0.00 0.00 75 1014.1
20260508012007 49 195 0.0 2.0 0.00 0.00 0.00 76 1014.0
20260508011046 49 222 0.0 0.0 0.00 0.00 0.00 78 1014.1
20260508010042 50 211 0.0 0.0 0.00 0.00 0.00 78 1014.1
20260508005038 50 200 0.0 0.0 0.00 0.00 0.00 79 1014.1
20260508004027 50 199 0.0 0.0 0.00 0.00 0.00 80 1014.2
20260508003012 51 198 0.0 0.0 0.00 0.00 0.00 80 1014.2
20260508002007 51 197 0.0 0.0 0.00 0.00 0.00 79 1014.2
20260508001043 51 197 0.0 0.0 0.00 0.00 0.00 79 1014.1
20260508000011 51 197 0.0 0.0 0.00 0.00 0.00 79 1014.0
20260507235041 51 197 0.0 0.0 0.00 0.00 0.00 79 1014.1
20260507234023 51 194 0.0 0.0 0.00 0.00 0.00 79 1014.2
20260507233003 51 206 0.0 0.0 0.00 0.00 0.00 79 1014.2
20260507232037 51 218 0.0 0.0 0.00 0.00 0.00 79 1014.1
20260507231024 51 218 0.0 0.0 0.00 0.00 0.00 79 1014.1
20260507230006 51 218 0.0 0.0 0.00 0.00 0.00 79 1014.1
20260507225036 51 175 0.0 0.0 0.00 0.00 0.00 79 1014.1
20260507224019 51 175 0.0 0.0 0.00 0.00 0.00 79 1014.1
20260507223039 51 175 0.0 0.0 0.00 0.00 0.00 79 1014.2
20260507222030 51 175 0.0 0.0 0.00 0.00 0.00 78 1014.1
20260507221009 51 175 0.0 0.0 0.00 0.00 0.00 78 1014.1
20260507220042 51 175 0.0 0.0 0.00 0.00 0.00 78 1014.2
20260507215026 51 175 0.0 0.0 0.00 0.00 0.00 78 1014.2
20260507214009 51 175 0.0 0.0 0.00 0.00 0.00 78 1014.2
20260507213038 51 175 0.0 0.0 0.00 0.00 0.00 77 1014.1
20260507212023 51 175 0.0 0.0 0.00 0.00 0.00 77 1014.1
20260507211006 51 175 0.0 0.0 0.00 0.00 0.00 77 1014.1
20260507210011 52 175 0.0 0.0 0.00 0.00 0.00 77 1014.0
20260507205003 52 175 0.0 0.0 0.00 0.00 0.00 77 1014.0
20260507204041 52 175 0.0 0.0 0.00 0.00 0.00 76 1013.9
20260507203025 52 175 0.0 0.0 0.00 0.00 0.00 76 1013.8
20260507202045 52 175 0.0 0.0 0.00 0.00 0.00 75 1013.7
20260507201030 53 175 0.0 0.0 0.00 0.00 0.00 75 1013.7
20260507200005 53 175 0.0 0.0 0.00 0.00 0.00 75 1013.6
20260507195039 53 254 0.0 0.0 0.00 0.00 0.00 74 1013.5
20260507194026 53 277 0.0 0.0 0.00 0.00 0.00 73 1013.4
20260507193003 54 247 0.0 0.0 0.00 0.00 0.00 72 1013.4
20260507192038 54 303 0.0 0.0 0.00 0.00 0.00 71 1013.3
20260507191024 54 206 0.0 0.0 0.00 0.00 0.00 70 1013.3
20260507190041 55 207 0.0 0.0 0.00 0.00 0.00 69 1013.3
20260507185029 55 214 0.0 4.0 0.00 0.00 0.00 68 1013.3
20260507184015 55 210 0.0 9.0 0.00 0.00 0.00 68 1013.3
20260507183040 55 215 0.0 0.0 0.00 0.00 0.00 69 1013.4
20260507182030 55 214 0.0 1.0 0.00 0.00 0.00 70 1013.3
20260507181008 55 175 0.0 1.0 0.00 0.00 0.00 69 1013.3
20260507180031 55 170 0.0 0.0 0.00 0.00 0.00 68 1013.1
20260507175044 56 209 0.0 0.0 0.00 0.00 0.00 68 1013.1
20260507174028 56 175 0.0 0.0 0.00 0.00 0.00 68 1013.0
20260507173011 56 159 0.0 1.0 0.00 0.00 0.00 67 1013.1
20260507172041 56 175 0.0 0.0 0.00 0.00 0.00 66 1013.1
20260507171032 56 175 0.0 2.0 0.00 0.00 0.00 65 1013.1
20260507170041 56 193 0.0 2.0 0.00 0.00 0.00 64 1013.2
20260507165027 57 185 0.0 1.0 0.00 0.00 0.00 64 1013.3
20260507164003 57 199 0.0 6.0 0.00 0.00 0.00 63 1013.1
20260507163032 57 189 0.0 2.0 0.00 0.00 0.00 62 1013.2
20260507162006 57 204 0.0 1.0 0.00 0.00 0.00 61 1013.1
20260507161041 58 208 0.0 2.0 0.00 0.00 0.00 60 1013.1
20260507160004 58 213 0.0 3.0 0.00 0.00 0.00 61 1013.1
20260507155044 58 193 0.0 0.0 0.00 0.00 0.00 60 1013.0
20260507154027 58 199 0.0 2.0 0.00 0.00 0.00 61 1013.1
20260507153047 58 210 0.0 0.0 0.00 0.00 0.00 62 1013.1
20260507152028 58 160 0.0 4.0 0.00 0.00 0.00 61 1013.2
20260507151004 58 200 0.0 2.0 0.00 0.00 0.00 60 1013.1
20260507150043 58 170 0.0 4.0 0.00 0.00 0.00 60 1013.2
20260507145029 58 175 0.0 0.0 0.00 0.00 0.00 59 1013.3
20260507144003 58 215 0.0 0.0 0.00 0.00 0.00 57 1013.3
20260507143037 59 206 0.0 0.0 0.00 0.00 0.00 56 1013.3
20260507142023 60 175 0.0 5.0 0.00 0.00 0.00 56 1013.4
20260507141048 59 121 0.0 1.0 0.00 0.00 0.00 59 1013.4
20260507140027 58 129 0.0 0.0 0.00 0.00 0.00 59 1013.5
20260507135010 59 140 0.0 0.0 0.00 0.00 0.00 60 1013.6
20260507134050 59 175 0.0 2.0 0.00 0.00 0.00 59 1013.6
20260507133039 59 160 0.0 1.0 0.00 0.00 0.00 60 1013.7
20260507132031 59 204 0.0 1.0 0.00 0.00 0.00 61 1013.7
20260507131006 59 175 0.0 3.0 0.00 0.00 0.00 58 1013.7
20260507130011 60 145 0.0 2.0 0.00 0.00 0.00 59 1013.8
20260507125038 61 147 0.0 5.0 0.00 0.00 0.00 56 1013.8
20260507124023 60 168 0.0 4.0 0.00 0.00 0.00 60 1013.8
20260507123036 59 175 0.0 6.0 0.00 0.00 0.00 61 1013.9
20260507122013 58 91 0.0 6.0 0.00 0.00 0.00 64 1013.9
20260507121045 59 118 0.0 3.0 0.00 0.00 0.00 65 1014.1
20260507120042 59 175 0.0 1.0 0.00 0.00 0.00 65 1014.1
20260507115029 58 202 0.0 0.0 0.00 0.00 0.00 67 1014.1
20260507114038 58 238 0.0 2.0 0.00 0.00 0.00 67 1014.2
20260507113038 57 199 0.0 0.0 0.00 0.00 0.00 71 1014.2
20260507112022 57 99 0.0 0.0 0.00 0.00 0.00 68 1014.4
20260507111003 56 240 0.0 1.0 0.00 0.00 0.00 74 1014.5
20260507110040 56 140 0.0 1.0 0.00 0.00 0.00 74 1014.6
20260507105026 55 175 0.0 1.0 0.00 0.00 0.00 76 1014.8
20260507104003 53 74 0.0 0.0 0.00 0.00 0.00 78 1014.5
20260507103036 52 77 0.0 0.0 0.00 0.00 0.00 78 1014.7
20260507102023 52 145 0.0 0.0 0.00 0.00 0.00 79 1014.8
20260507101003 51 185 0.0 0.0 0.00 0.00 0.00 80 1015.0
20260507100010 51 192 0.0 0.0 0.00 0.00 0.00 81 1014.9
20260507095044 50 191 0.0 0.0 0.00 0.00 0.00 82 1015.0
20260507094029 50 210 0.0 0.0 0.00 0.00 0.00 83 1015.0
20260507093005 49 212 0.0 0.0 0.00 0.00 0.00 84 1014.9
20260507092043 48 157 0.0 0.0 0.00 0.00 0.00 85 1014.9
20260507091028 48 213 0.0 0.0 0.00 0.00 0.00 86 1014.9
20260507090025 47 0.0 0.0 0.00 0.00 0.00 87 1014.9
20260507085005 0 0.0 0.0 0.00 0.00 0.00 1015.0
20260507084027 0 0.0 0.0 0.00 0.00 0.00 1015.0
20260507083007 0 0.0 0.0 0.00 0.00 0.00 1015.0
20260507082043 0 0.0 0.0 0.00 0.00 0.00 1014.9
20260507081027 0 0.0 0.0 0.00 0.00 0.00 1014.9
20260507080030 0 0.0 0.0 0.00 0.00 0.00 1014.8
20260507075012 0 0.0 0.0 0.00 0.00 0.00 1014.8
20260507074010 44 293 0.0 0.0 0.00 0.00 0.00 91 1014.7
20260507073002 44 293 0.0 0.0 0.00 0.00 0.00 91 1014.7
20260507072030 44 291 0.0 0.0 0.00 0.00 0.00 91 1014.8
20260507071013 43 290 0.0 0.0 0.00 0.00 0.00 91 1014.6
20260507070046 43 290 0.0 0.0 0.00 0.00 0.00 92 1014.6
20260507065031 43 290 0.0 0.0 0.00 0.00 0.00 92 1014.7
20260507064010 43 289 0.0 0.0 0.00 0.00 0.00 92 1014.5
20260507063002 43 289 0.0 0.0 0.00 0.00 0.00 92 1014.5
20260507062043 42 289 0.0 0.0 0.00 0.00 0.00 92 1014.5
20260507061022 42 289 0.0 0.0 0.00 0.00 0.00 92 1014.5
20260507060027 42 0.0 0.0 0.00 0.00 0.00 92 1014.4
20260507055006 42 0.0 0.0 0.00 0.00 0.00 92 1014.4
20260507054030 42 0.0 0.0 0.00 0.00 0.00 92 1014.4
20260507053007 42 0.0 0.0 0.00 0.00 0.00 92 1014.3
20260507052043 42 0.0 0.0 0.00 0.00 0.00 92 1014.3
20260507051026 0 0.0 0.0 0.00 0.00 0.00 1014.3
20260507050035 0 0.0 0.0 0.00 0.00 0.00 1014.2
20260507045005 42 7 0.0 0.0 0.00 0.00 0.00 91 1014.3
20260507044025 42 7 0.0 0.0 0.00 0.00 0.00 91 1014.3
20260507043044 42 7 0.0 0.0 0.00 0.00 0.00 91 1014.2
20260507042027 42 7 0.0 0.0 0.00 0.00 0.00 91 1014.1
20260507041010 42 7 0.0 0.0 0.00 0.00 0.00 91 1014.1
20260507040009 42 7 0.0 0.0 0.00 0.00 0.00 91 1014.1
20260507035033 42 7 0.0 0.0 0.00 0.00 0.00 91 1014.1
20260507034009 42 7 0.0 0.0 0.00 0.00 0.00 91 1014.1
20260507033002 42 7 0.0 0.0 0.00 0.00 0.00 91 1014.1
20260507032045 42 7 0.0 0.0 0.00 0.00 0.00 91 1014.1
20260507031024 42 6 0.0 0.0 0.00 0.00 0.00 91 1014.3
20260507030036 42 6 0.0 0.0 0.00 0.00 0.00 90 1014.2